This demonstration page uses our WeatherBlox Daily Observations layout. Learn more.

41.55636, -103.73856

Hourly Observations for August 20, 2018

Temp ( °F °C ) Dew Point ( °F °C ) Humidity (%) Winds ( mph kmh ) Pressure ( in mb ) Visibility ( mi km ) Precip ( " mm )
12:58 am 00:58 Partly Cloudy with Mist and Fog 46 7.6 42 5.8 89 89 N 6 9 30.21 1023 6 9.656064 0 0
1:58 am 01:58 Clear with Mist and Fog 44 6.6 42 5.3 92 92 NNW 9 15 30.24 1024 5 8.04672 0 0
2:58 am 02:58 Clear 43 6.2 40 4.7 90 90 NNW 9 15 30.21 1023 7 11.265408 0 0
3:58 am 03:58 Clear 42 5.5 39 4.1 91 91 NNW 9 15 30.21 1023 7 11.265408 0 0
4:58 am 04:58 Clear 40 4.7 38 3.5 92 92 NNW 9 15 30.21 1023 7 11.265408 0 0
5:58 am 05:58 Clear with Mist and Fog 41 4.8 38 3.5 91 91 NNW 8 13 30.24 1024 5 8.04672 0 0
6:58 am 06:58 Sunny with Mist and Fog 41 4.9 39 4 94 94 WNW 6 9 30.24 1024 4 6.437376 0 0
7:58 am 07:58 Sunny with Mist and Fog 47 8.1 44 6.5 90 90 NW 3 6 30.24 1024 5 8.04672 0 0
8:58 am 08:58 Sunny 52 10.9 44 6.5 75 75 Calm 30.24 1024 9 14.484096 0 0
9:58 am 09:58 Sunny 55 12.7 40 4.3 57 57 E 3 6 30.24 1024 10 16.09344 0 0
10:58 am 10:58 Sunny 58 14.4 41 5.2 54 54 E 3 6 30.21 1023 10 16.09344 0 0
11:58 am 11:58 Sunny 60 15.8 43 6.2 53 53 ENE 6 9 30.21 1023 10 16.09344 0 0
12:58 pm 12:58 Sunny 63 17.1 40 4.5 43 43 Calm 30.18 1022 9 14.484096 0 0
1:58 pm 13:58 Sunny 65 18.1 36 2.4 35 35 Calm 30.18 1022 9 14.484096 0 0
2:58 pm 14:58 Sunny 66 19.1 40 4.6 39 39 ESE 9 15 30.15 1021 10 16.09344 0 0
3:58 pm 15:58 Sunny 67 19.3 37 2.9 34 34 ESE 5 7 30.15 1021 10 16.09344 0 0
4:58 pm 16:58 Sunny 66 18.8 39 4 38 38 ESE 8 13 30.15 1021 10 16.09344 0 0
5:58 pm 17:58 Sunny 65 18.2 38 3.2 37 37 ESE 10 17 30.15 1021 10 16.09344 0 0
6:58 pm 18:58 Sunny 61 16.1 41 5.1 48 48 ESE 10 17 30.18 1022 10 16.09344 0 0
7:58 pm 19:58 Clear 55 12.9 42 5.8 62 62 ESE 10 17 30.18 1022 10 16.09344 0 0
8:58 pm 20:58 Clear 53 11.6 43 6.1 69 69 SSE 6 9 30.21 1023 10 16.09344 0 0
9:58 pm 21:58 Clear 52 10.9 43 6 72 72 SE 9 15 30.18 1022 10 16.09344 0 0
10:58 pm 22:58 Mostly Clear 51 10.8 43 5.9 72 72 SE 9 15 30.18 1022 10 16.09344 0 0

Powered by AerisWeather